When you browse on this site, cookies collect data to enhance your experience and personalize the content and advertising you see.
Visit our Privacy Policy to learn more. By continuing to use the site, you agree to this use of cookies and data.
  • En España
  • Lista de países
  • Para 7 días
  • Temperatura del agua
  • Mapa Satelital
  • El tiempo en el mapa
  • Informadores
  • user-avatar
    Iniciar sesión

    Tiempo cada hora Korçe

    Hoy, 23 Julio, Martes

    Tiempo Temperatura Precipitaciones Viento Presión Humedad
    00:00 +19°C° 0 mm 1 mps 669 mmHg 66%
    01:00 +19°C° 0 mm 1 mps 669 mmHg 67%
    02:00 +19°C° 0 mm 1 mps 668 mmHg 68%
    03:00 +18°C° 0 mm 1 mps 668 mmHg 70%
    04:00 +18°C° 0 mm 1 mps 667 mmHg 72%
    05:00 +20°C° 0 mm 1 mps 668 mmHg 68%
    06:00 +21°C° 0 mm 1 mps 669 mmHg 65%
    07:00 +23°C° 0 mm 1 mps 669 mmHg 62%
    08:00 +25°C° 0.1 mm 1 mps 670 mmHg 56%
    09:00 +27°C° 0.1 mm 1 mps 670 mmHg 49%
    10:00 +26°C° 0.1 mm 0 mps 670 mmHg 43%
    11:00 +28°C° 0.1 mm 1 mps 670 mmHg 44%
    12:00 +28°C° 0.1 mm 1 mps 670 mmHg 45%
    13:00 +27°C° 0.1 mm 2 mps 669 mmHg 45%
    14:00 +26°C° 0.1 mm 2 mps 669 mmHg 52%
    15:00 +25°C° 0.1 mm 1 mps 668 mmHg 59%
    16:00 +23°C° 0.1 mm 1 mps 667 mmHg 66%
    17:00 +22°C° 0.1 mm 1 mps 667 mmHg 69%
    18:00 +21°C° 0.1 mm 1 mps 667 mmHg 73%
    19:00 +20°C° 0.1 mm 1 mps 667 mmHg 77%
    20:00 +20°C° 0 mm 1 mps 667 mmHg 77%
    21:00 +20°C° 0 mm 1 mps 667 mmHg 77%
    22:00 +19°C° 0 mm 1 mps 667 mmHg 77%
    23:00 +19°C° 0 mm 1 mps 667 mmHg 78%

    Mañana, 24 Julio, Miércoles

    Tiempo Temperatura Precipitaciones Viento Presión Humedad
    00:00 +18°C° 0 mm 1 mps 666 mmHg 78%
    01:00 +18°C° 0 mm 1 mps 666 mmHg 78%
    02:00 +16°C° 0 mm 2 mps 666 mmHg 78%
    03:00 +16°C° 0 mm 2 mps 666 mmHg 78%
    04:00 +15°C° 0 mm 2 mps 665 mmHg 77%
    05:00 +17°C° 0 mm 2 mps 666 mmHg 73%
    06:00 +19°C° 0 mm 2 mps 666 mmHg 68%
    07:00 +20°C° 0 mm 2 mps 667 mmHg 63%
    08:00 +23°C° 0 mm 2 mps 667 mmHg 57%
    09:00 +25°C° 0 mm 2 mps 668 mmHg 51%
    10:00 +26°C° 0 mm 2 mps 668 mmHg 45%
    11:00 +27°C° 0 mm 2 mps 668 mmHg 43%
    12:00 +28°C° 0 mm 2 mps 668 mmHg 41%
    13:00 +28°C° 0 mm 3 mps 668 mmHg 40%
    14:00 +28°C° 0 mm 3 mps 668 mmHg 41%
    15:00 +27°C° 0 mm 3 mps 668 mmHg 42%
    16:00 +27°C° 0 mm 3 mps 668 mmHg 44%
    17:00 +25°C° 0 mm 3 mps 667 mmHg 51%
    18:00 +23°C° 0 mm 2 mps 667 mmHg 58%
    19:00 +20°C° 0 mm 2 mps 667 mmHg 65%
    20:00 +19°C° 0 mm 2 mps 667 mmHg 66%
    21:00 +18°C° 0 mm 2 mps 667 mmHg 67%
    22:00 +17°C° 0 mm 2 mps 667 mmHg 68%
    23:00 +17°C° 0 mm 2 mps 667 mmHg 68%

    Pasado mañana, 25 Julio, Jueves

    Tiempo Temperatura Precipitaciones Viento Presión Humedad
    00:00 +16°C° 0 mm 2 mps 667 mmHg 67%
    01:00 +16°C° 0 mm 2 mps 667 mmHg 67%
    02:00 +16°C° 0 mm 2 mps 667 mmHg 68%
    03:00 +15°C° 0 mm 2 mps 667 mmHg 70%
    04:00 +15°C° 0 mm 2 mps 667 mmHg 71%
    05:00 +17°C° 0 mm 2 mps 668 mmHg 67%
    06:00 +18°C° 0 mm 2 mps 668 mmHg 62%
    07:00 +20°C° 0 mm 2 mps 669 mmHg 58%
    08:00 +23°C° 0 mm 1 mps 669 mmHg 53%
    09:00 +25°C° 0 mm 1 mps 670 mmHg 47%
    10:00 +27°C° 0 mm 1 mps 671 mmHg 42%
    11:00 +27°C° 0 mm 1 mps 671 mmHg 40%
    12:00 +28°C° 0 mm 2 mps 671 mmHg 38%
    13:00 +29°C° 0 mm 2 mps 670 mmHg 36%
    14:00 +28°C° 0 mm 2 mps 670 mmHg 38%
    15:00 +28°C° 0 mm 3 mps 670 mmHg 40%
    16:00 +28°C° 0 mm 3 mps 669 mmHg 42%
    17:00 +25°C° 0 mm 3 mps 669 mmHg 51%
    18:00 +23°C° 0 mm 2 mps 669 mmHg 59%
    19:00 +20°C° 0 mm 2 mps 668 mmHg 68%
    20:00 +20°C° 0 mm 1 mps 668 mmHg 69%
    21:00 +19°C° 0 mm 1 mps 668 mmHg 70%
    22:00 +19°C° 0 mm 1 mps 668 mmHg 71%
    23:00 +19°C° 0 mm 1 mps 668 mmHg 70%

    26 Julio, Viernes

    Tiempo Temperatura Precipitaciones Viento Presión Humedad
    00:00 +18°C° 0 mm 1 mps 668 mmHg 70%
    01:00 +18°C° 0 mm 1 mps 667 mmHg 69%
    02:00 +18°C° 0 mm 1 mps 667 mmHg 70%
    03:00 +18°C° 0 mm 1 mps 667 mmHg 70%
    04:00 +16°C° 0 mm 1 mps 667 mmHg 71%
    05:00 +19°C° 0 mm 1 mps 667 mmHg 66%
    06:00 +21°C° 0 mm 1 mps 668 mmHg 61%
    07:00 +21°C° 0 mm 0 mps 668 mmHg 56%
    08:00 +25°C° 0 mm 1 mps 668 mmHg 51%
    09:00 +26°C° 0 mm 1 mps 669 mmHg 46%
    10:00 +28°C° 0 mm 1 mps 669 mmHg 42%
    11:00 +28°C° 0 mm 1 mps 669 mmHg 40%
    12:00 +29°C° 0 mm 2 mps 668 mmHg 39%
    13:00 +29°C° 0 mm 2 mps 668 mmHg 38%
    14:00 +28°C° 0 mm 3 mps 668 mmHg 41%
    15:00 +28°C° 0 mm 3 mps 667 mmHg 45%
    16:00 +27°C° 0 mm 3 mps 667 mmHg 49%
    17:00 +25°C° 0 mm 3 mps 666 mmHg 57%
    18:00 +23°C° 0 mm 2 mps 666 mmHg 66%
    19:00 +21°C° 0 mm 1 mps 665 mmHg 74%
    20:00 +20°C° 0 mm 1 mps 665 mmHg 76%
    21:00 +20°C° 0 mm 1 mps 665 mmHg 78%
    22:00 +17°C° 0 mm 0 mps 665 mmHg 81%
    23:00 +17°C° 0 mm 0 mps 664 mmHg 81%

    27 Julio, Sábado

    Tiempo Temperatura Precipitaciones Viento Presión Humedad
    00:00 +16°C° 0 mm 0 mps 664 mmHg 82%
    01:00 +16°C° 0 mm 0 mps 664 mmHg 82%
    02:00 +16°C° 0 mm 0 mps 664 mmHg 82%
    03:00 +15°C° 0 mm 0 mps 663 mmHg 83%
    04:00 +15°C° 0 mm 0 mps 663 mmHg 83%
    05:00 +17°C° 0 mm 0 mps 663 mmHg 75%
    06:00 +19°C° 0 mm 0 mps 664 mmHg 68%
    07:00 +21°C° 0 mm 0 mps 664 mmHg 61%
    08:00 +24°C° 0 mm 1 mps 665 mmHg 54%
    09:00 +26°C° 0 mm 1 mps 665 mmHg 47%
    10:00 +28°C° 0 mm 1 mps 666 mmHg 40%
    11:00 +28°C° 0 mm 2 mps 666 mmHg 39%
    12:00 +29°C° 0 mm 2 mps 665 mmHg 37%
    13:00 +30°C° 0 mm 2 mps 665 mmHg 35%
    14:00 +29°C° 0 mm 3 mps 665 mmHg 37%
    15:00 +29°C° 0 mm 3 mps 664 mmHg 38%
    16:00 +29°C° 0 mm 3 mps 664 mmHg 40%
    17:00 +26°C° 0 mm 2 mps 663 mmHg 48%
    18:00 +24°C° 0 mm 2 mps 663 mmHg 57%
    19:00 +22°C° 0 mm 1 mps 662 mmHg 65%
    20:00 +21°C° 0 mm 1 mps 662 mmHg 68%
    21:00 +20°C° 0 mm 1 mps 662 mmHg 72%
    22:00 +19°C° 0 mm 1 mps 662 mmHg 75%
    23:00 +19°C° 0 mm 1 mps 662 mmHg 76%

    28 Julio, Domingo

    Tiempo Temperatura Precipitaciones Viento Presión Humedad
    00:00 +19°C° 0 mm 1 mps 661 mmHg 77%
    01:00 +18°C° 0 mm 1 mps 661 mmHg 78%
    02:00 +18°C° 0 mm 1 mps 661 mmHg 78%
    03:00 +18°C° 0 mm 1 mps 661 mmHg 78%
    04:00 +18°C° 0 mm 1 mps 660 mmHg 78%
    05:00 +18°C° 0 mm 2 mps 661 mmHg 71%
    06:00 +20°C° 0 mm 2 mps 662 mmHg 64%
    07:00 +21°C° 0 mm 2 mps 662 mmHg 57%
    08:00 +24°C° 0 mm 2 mps 662 mmHg 51%
    09:00 +26°C° 0 mm 2 mps 663 mmHg 44%
    10:00 +27°C° 0 mm 2 mps 663 mmHg 38%
    11:00 +28°C° 0 mm 2 mps 663 mmHg 37%
    12:00 +28°C° 0 mm 2 mps 663 mmHg 36%
    13:00 +28°C° 0 mm 2 mps 663 mmHg 36%
    14:00 +28°C° 0 mm 2 mps 662 mmHg 35%
    15:00 +29°C° 0 mm 2 mps 662 mmHg 35%
    16:00 +29°C° 0 mm 2 mps 662 mmHg 35%
    17:00 +26°C° 0 mm 2 mps 662 mmHg 44%
    18:00 +24°C° 0 mm 1 mps 661 mmHg 53%
    19:00 +21°C° 0 mm 1 mps 660 mmHg 62%
    20:00 +20°C° 0 mm 1 mps 660 mmHg 66%
    21:00 +20°C° 0 mm 1 mps 660 mmHg 69%
    22:00 +18°C° 0 mm 2 mps 660 mmHg 73%
    23:00 +17°C° 0 mm 2 mps 660 mmHg 77%
    Mostrar más